Theta_e
296 294 292 291 290 289 289 288 289 289 291 296 298 298 296 293 292 292 292 293 294 296 296 297 298 299 300 301 301 301 304 310 313 314 319 323 325 324 325 327 327 327 326
292 292 291 289 289 287 286 287 287 287 289 292 295 298 296 294 291 290 290 290 291 293 294 295 295 296 297 299 299 298 299 304 309 307 311 309 316 321 322 324 324 324 326
293 292 290 289 287 287 285 286 286 287 287 289 292 294 294 291 289 288 287 288 289 290 292 292 293 294 295 294 296 297 297 297 303 303 304 305 306 310 321 322 323 323 324
292 292 291 288 287 286 285 285 285 286 286 287 287 287 286 286 285 286 286 286 287 288 289 290 291 292 293 292 294 295 296 297 295 301 300 301 302 303 306 318 320 321 316
292 291 290 289 287 286 285 285 284 284 285 285 285 285 283 284 284 284 284 284 285 285 287 288 289 289 290 291 291 292 293 293 294 294 295 297 298 298 297 301 307 310 302
291 290 290 288 286 285 284 284 284 283 283 284 284 283 282 282 282 282 283 283 284 284 285 286 287 288 288 289 289 291 291 291 291 292 293 292 291 292 292 294 297 299 296
289 289 287 286 285 284 283 283 283 282 282 282 282 282 282 282 281 281 282 282 282 283 283 285 285 286 287 288 288 288 288 289 289 289 289 290 290 291 292 293 292 294 299
288 288 288 287 286 285 283 283 282 281 281 281 281 282 282 282 282 282 282 282 282 283 283 284 285 285 286 287 287 287 287 288 288 287 288 288 287 288 289 289 289 290 296
288 288 288 288 286 285 284 283 282 281 281 280 280 280 281 281 280 281 282 282 282 283 283 283 284 285 285 285 286 285 285 286 286 286 286 286 287 288 289 289 290 288 288
288 287 286 286 286 285 284 283 282 281 281 280 280 280 280 281 282 283 281 281 281 282 282 282 283 283 284 285 284 284 284 284 285 285 284 285 286 287 287 288 288 287 287
286 285 284 284 284 283 282 281 281 280 280 280 280 280 282 282 282 281 281 280 281 281 281 281 282 282 283 284 284 283 282 282 283 284 283 283 285 285 286 286 286 286 286
285 284 283 282 282 282 280 280 280 279 280 280 280 281 282 281 281 282 280 281 281 281 281 281 281 281 281 283 283 282 282 281 280 281 282 282 284 284 285 284 284 284 285
284 283 283 282 281 281 280 280 279 279 279 279 280 280 279 280 280 279 280 281 280 280 280 280 280 280 280 281 283 283 282 281 280 280 280 281 282 282 283 283 283 284 284
282 282 281 280 280 280 279 278 278 278 280 280 281 279 280 280 279 280 279 279 279 279 279 279 279 279 279 280 282 283 282 280 280 280 280 280 281 283 283 283 283 283 283
282 281 280 278 278 278 278 277 278 280 281 280 280 279 280 280 280 279 279 279 278 278 278 278 278 278 278 279 282 283 281 280 279 279 279 280 282 283 284 283 283 283 282
280 280 280 278 276 276 277 279 279 279 279 279 279 280 279 279 278 278 278 278 277 277 277 277 277 277 277 280 283 284 281 280 279 279 279 280 280 282 283 284 284 284 282
280 279 278 277 277 277 278 277 278 279 279 279 279 279 279 277 277 277 277 276 276 276 275 276 276 276 276 279 282 283 281 279 279 279 279 279 280 281 281 282 282 282 283
278 278 277 277 277 277 278 278 278 278 278 279 278 278 277 277 277 276 276 276 275 275 275 275 275 275 275 279 280 282 279 279 278 278 279 279 279 280 282 281 280 281 282
277 277 277 277 276 276 276 276 277 278 278 277 277 277 276 276 276 275 275 275 274 274 274 275 274 274 274 277 279 280 278 278 277 278 279 279 279 280 283 281 280 280 280
277 276 276 276 274 274 276 276 276 276 275 276 276 276 276 275 274 274 274 274 274 274 274 274 274 274 274 276 279 280 279 277 277 278 279 280 279 281 282 281 280 278 279
276 275 274 272 272 273 274 273 274 274 275 276 276 275 275 274 273 273 273 273 273 273 272 272 272 273 274 275 278 280 279 278 277 277 277 278 280 281 282 282 280 280 279
274 272 271 271 271 273 273 273 273 275 276 275 273 273 272 272 273 273 273 273 272 271 270 270 271 273 274 276 278 279 280 280 279 278 278 278 281 282 282 280 280 280 279
273 273 272 272 273 274 274 272 273 272 272 271 271 270 270 271 272 272 272 272 271 269 269 270 270 272 274 275 277 278 279 280 279 279 279 281 281 279 278 278 278 278 275
273 272 271 271 271 272 273 271 271 271 270 269 269 269 269 270 270 271 271 271 269 268 269 269 270 271 273 274 275 276 276 279 279 279 278 279 277 276 276 275 275 274 274
273 273 272 271 271 270 270 269 270 269 268 268 268 268 269 269 268 270 270 269 270 270 269 270 271 271 271 274 277 278 279 279 279 277 275 274 273 272 272 272 272 273 273
272 271 270 270 270 269 269 269 269 269 268 267 268 268 268 267 268 268 267 272 275 276 278 278 277 277 278 279 279 279 280 279 279 273 271 271 271 270 270 270 270 271 271
Wind_Speed
4 5 5 3 1 4 8 9 9 10 8 4 3 3 6 7 8 8 12 12 12 13 12 8 9 9 8 8 8 5 6 5 7 6 5 5 8 9 8 9 8 10 10
5 5 4 1 4 1 3 5 6 7 6 3 2 2 1 3 5 6 9 11 11 11 10 10 9 10 8 10 10 9 4 3 6 4 5 5 4 7 9 8 8 11 8
7 5 6 6 5 2 3 4 5 6 6 6 2 1 2 2 4 7 7 9 11 10 10 10 8 8 7 7 9 9 8 5 3 8 3 4 3 4 1 6 6 7 6
4 4 6 4 5 3 2 3 4 5 5 6 5 6 3 2 3 4 5 7 10 11 11 10 10 9 7 9 8 8 8 7 6 5 6 4 4 4 5 2 2 4 8
6 6 6 7 5 6 6 4 3 4 4 4 5 5 6 4 2 3 5 7 7 9 10 10 10 9 7 8 9 9 9 6 5 6 4 4 4 4 3 3 4 4 8
6 5 5 6 7 6 5 5 4 3 4 4 5 6 6 5 4 5 5 5 5 6 9 8 8 8 8 8 7 8 9 8 6 6 6 6 4 3 3 3 3 6 6
6 6 8 8 8 9 8 7 6 4 4 5 5 4 5 5 6 5 4 5 5 5 8 8 8 6 7 7 7 7 8 8 7 7 5 6 6 5 4 3 4 3 3
4 6 7 8 9 11 10 9 8 5 5 5 5 4 4 3 4 4 4 4 4 4 5 6 7 8 7 7 6 6 6 7 6 9 7 4 5 5 4 3 4 3 0
2 3 5 7 8 8 9 10 9 7 6 5 4 4 4 5 5 5 4 3 4 4 5 6 6 7 7 7 6 5 6 6 6 7 7 6 5 5 4 4 3 3 3
4 4 3 3 6 6 6 7 7 8 7 6 5 5 5 4 4 3 4 4 4 4 5 5 5 6 7 7 6 6 6 6 5 4 6 6 4 5 4 5 4 4 2
4 3 4 4 2 4 6 7 7 8 9 7 6 6 5 4 3 3 2 3 3 4 5 5 5 5 5 6 6 6 7 7 6 6 6 6 6 4 4 4 4 5 4
4 4 4 5 3 4 7 10 9 8 7 7 6 5 5 4 1 1 2 3 3 3 4 4 5 5 5 5 4 5 6 7 6 6 6 6 5 5 4 4 5 4 5
4 3 4 4 2 4 6 7 6 6 6 7 6 4 4 3 1 2 2 1 2 4 4 4 5 6 6 5 5 4 5 5 5 5 5 5 5 5 4 4 4 3 4
3 3 4 7 5 2 4 5 5 6 6 6 5 4 3 1 1 1 1 1 2 2 3 4 4 5 7 6 5 2 1 3 3 4 4 4 5 5 5 4 4 4 3
3 4 7 6 5 2 3 4 5 6 6 6 4 4 3 2 2 1 1 2 3 3 3 3 4 4 5 4 7 3 3 2 2 3 4 4 4 6 6 3 3 5 4
3 4 4 5 6 2 3 5 5 5 5 5 4 3 3 3 2 2 1 1 3 3 4 4 4 4 4 9 10 7 4 2 2 3 4 4 3 5 6 6 6 6 5
2 2 3 4 4 3 3 5 5 4 4 4 4 4 3 3 2 2 3 3 4 4 4 4 4 4 5 9 9 10 3 2 2 2 3 4 3 5 5 6 4 5 7
3 2 2 3 3 2 3 3 3 3 3 4 4 4 3 2 3 4 5 4 5 5 5 4 4 4 5 8 9 6 0 1 3 2 3 3 4 5 6 3 2 3 4
2 2 2 3 3 3 2 2 1 2 3 4 3 3 2 3 4 5 6 6 5 4 4 4 4 4 6 8 8 6 2 3 4 4 3 4 4 8 9 2 3 4 3
2 2 3 3 3 3 2 2 2 3 3 2 2 3 3 4 5 6 7 5 4 5 3 4 4 7 5 8 9 8 3 4 3 4 4 7 6 9 10 1 2 3 3
3 3 4 2 1 3 2 1 0 1 1 2 3 4 5 5 6 7 4 4 4 4 3 5 5 6 6 7 9 10 3 4 4 4 3 4 9 10 10 7 2 1 3
3 2 2 1 2 2 2 2 3 2 3 4 5 5 4 5 6 4 4 4 3 4 4 5 5 4 5 8 8 10 9 7 3 4 4 6 12 12 5 3 7 8 6
2 2 2 3 3 3 3 5 4 3 4 4 5 5 5 6 6 5 5 4 3 3 4 4 4 4 4 4 10 9 8 9 6 4 8 10 8 5 4 6 8 7 4
3 2 3 4 5 4 5 4 6 5 4 6 6 5 5 7 5 4 4 4 4 4 5 5 5 5 5 5 5 5 5 8 7 8 5 2 3 2 4 5 5 4 4
4 4 5 5 5 4 6 6 7 5 6 6 6 6 6 5 5 5 5 5 6 7 5 6 6 5 5 7 10 10 6 6 7 6 3 1 1 3 4 4 4 4 4
5 6 7 7 7 6 7 7 6 6 6 7 7 5 5 5 5 5 5 11 15 16 17 15 10 7 12 13 13 12 10 10 9 3 1 1 3 4 4 4 4 4 5
Wind_Direction
240 192 184 161 33 31 12 13 15 11 18 4 3 33 42 34 35 31 27 23 19 15 22 20 14 16 22 20 15 348 339 316 352 300 266 262 240 227 223 229 226 226 231
212 204 195 132 56 49 11 19 20 20 24 14 347 17 33 55 45 29 30 28 29 25 26 24 23 20 13 15 19 12 342 308 3 334 295 279 247 237 235 229 226 231 227
216 205 190 194 188 183 60 38 19 13 17 12 22 73 74 50 17 22 26 20 23 26 27 31 28 25 27 22 14 10 11 338 329 354 309 309 286 341 223 235 230 227 219
209 198 190 183 198 184 78 44 25 26 31 25 58 69 71 77 27 23 25 28 27 28 29 28 29 26 22 26 19 17 8 357 4 329 3 336 352 325 301 265 48 354 9
195 200 192 194 172 165 185 170 114 74 56 55 70 85 86 89 100 73 54 36 32 32 31 36 31 32 29 20 18 19 20 19 12 13 341 348 342 16 315 307 2 60 40
190 195 192 167 179 173 173 168 156 117 95 89 81 93 101 94 78 50 56 38 25 27 28 31 41 43 35 29 23 20 25 25 27 14 16 18 6 5 342 318 338 318 57
182 184 189 193 187 190 187 183 174 160 130 99 96 98 98 82 75 56 54 46 31 21 16 21 27 33 35 40 39 36 33 27 35 30 18 21 16 358 339 323 317 294 75
187 198 206 207 200 202 190 186 175 159 154 148 135 119 106 104 95 75 59 47 32 20 7 15 24 32 30 29 42 53 42 31 36 42 34 31 19 2 2 346 337 301 357
182 204 222 215 212 205 202 183 169 163 167 155 133 119 119 105 97 86 76 56 29 15 18 19 23 26 29 27 28 41 45 40 37 39 42 38 25 15 6 5 4 334 330
84 51 13 273 228 209 194 180 170 171 163 156 153 152 138 124 113 89 63 58 36 31 22 21 24 28 27 26 31 35 32 40 29 39 43 39 26 32 22 24 24 29 334
77 37 358 343 315 175 169 174 175 166 168 169 163 155 145 123 111 90 69 69 67 38 28 15 23 21 20 19 30 37 31 36 25 21 26 30 29 34 27 26 34 37 20
81 40 11 352 348 180 173 185 184 172 166 160 157 154 137 123 123 78 59 90 45 16 15 12 7 2 1 12 24 28 30 31 17 14 15 16 11 29 25 24 29 28 33
87 39 25 16 336 241 203 188 172 157 152 147 135 129 127 139 34 19 119 39 19 34 21 21 4 351 344 346 10 8 17 14 7 358 359 353 354 4 12 22 16 19 24
84 49 24 20 355 287 201 160 150 149 144 136 141 150 155 170 139 77 44 6 343 28 21 354 344 342 327 317 319 298 325 355 5 343 344 339 338 352 352 15 6 11 10
72 32 22 359 353 23 125 130 139 144 149 152 157 165 149 178 225 249 302 338 343 351 325 321 320 320 310 302 315 283 221 296 328 336 346 341 342 356 353 2 20 13 11
93 43 22 11 8 26 140 145 141 142 142 151 166 174 180 183 194 212 254 293 325 319 308 302 290 304 306 306 304 306 210 251 294 320 336 330 351 344 342 343 0 5 357
63 39 28 26 28 48 140 146 142 139 147 160 165 169 168 179 217 258 262 276 287 284 286 289 275 293 304 297 308 306 177 272 283 293 322 321 336 330 318 331 9 356 360
102 99 70 63 39 39 83 121 140 150 171 174 169 163 173 204 251 270 269 270 274 275 289 286 279 294 302 305 305 312 245 284 308 298 289 293 312 317 310 251 310 357 359
107 100 92 83 73 55 29 124 139 183 184 173 165 170 206 250 264 267 269 272 276 284 281 280 292 289 296 300 305 297 269 293 301 298 295 294 305 310 307 8 342 324 356
73 98 74 56 63 6 349 186 187 169 160 171 182 230 253 263 265 271 277 268 266 274 284 294 286 287 295 298 294 289 249 265 276 281 278 303 307 307 304 11 93 334 57
35 34 54 87 21 345 22 57 235 224 231 267 269 269 269 272 270 270 250 259 259 270 281 284 289 279 272 281 288 289 262 246 254 238 263 272 288 285 291 131 240 2 108
32 39 74 281 318 355 20 293 289 291 261 271 277 283 289 285 283 267 262 251 243 254 268 281 283 274 275 281 285 279 282 261 218 249 261 266 281 288 357 41 355 345 352
360 358 319 316 308 300 286 287 290 309 283 277 277 283 285 280 280 266 262 251 232 242 263 266 265 279 281 279 289 287 286 298 289 276 264 287 328 26 33 343 349 341 319
323 322 335 320 306 305 297 287 294 301 286 275 277 277 269 271 258 262 265 258 239 245 250 256 251 271 280 279 278 270 265 284 282 287 304 281 104 13 340 331 326 318 311
326 320 311 304 293 308 291 289 293 291 274 268 266 265 267 258 267 258 248 248 246 231 243 246 240 248 258 265 264 262 253 244 256 150 125 105 343 320 313 312 312 307 311
334 318 305 303 299 290 282 279 270 267 258 264 265 255 256 247 253 254 268 276 264 256 253 260 255 233 256 269 282 287 297 297 129 102 129 287 292 292 299 298 298 293 296